Location: Bittkow
(50.3000°N, 19.0000°E)
Time: 05:29:17
(UTC+00:00)

IRIDIUM 104 - Pass Details

Date: 19 September 2020
Orbit: 776 x 779 km, 86.4° (Epoch: 20 October)

Event Time Altitude Azimuth Distance (km) Brightness Sun altitude
Rises 03:03:32 0° 353° (N) 3,274 7.7 -13.7°
Reaches altitude 10° 03:05:54 10° 350° (N) 2,341 6.9 -13.4°
Maximum altitude 03:11:05 63° 271° (W) 868 4.3 -12.6°
Drops below altitude 10° 03:16:12 10° 191° (S) 2,322 6.5 -11.8°
Sets 03:18:33 0° 188° (S) 3,245 7.3 -11.4°
